Location: Diati
(11.8376°N, 2.5966°E)
Time: 18:03:32
(UTC+00:00)

ARIANE 5 R/B - Pass Details

Date: 21 September 2020
Orbit: 278 x 32512 km, 4.9° (Epoch: 19 October)

Event Time Altitude Azimuth Distance (km) Brightness Sun altitude
Rises 17:48:05 0° 269° (W) 12,124 12.4 -1.3°
Reaches altitude 10° 18:03:22 10° 263° (W) 6,527 8.6 -5.1°
Maximum altitude 18:15:18 32° 205° (SSW) 1,583 3.9 -8.0°
Drops below altitude 10° 18:18:33 10° 138° (SE) 1,749 3.5 -8.8°
Enters shadow 18:19:07 - 132° (SE) 1,943 3.7 -8.9°
